Weather History for MMTO - March, 2013

Change the Weather History Date:

Saturday, March 9, 2013

  Actual Average Record
Temperature  
Mean Temperature 55 °F -  
Max Temperature 75 °F 71 °F 84 °F (2003)
Min Temperature 35 °F 37 °F 30 °F (2008)
Degree Days  
Heating Degree Days 10    
Growing Degree Days 5 (Base 50)    
Moisture  
Dew Point 28 °F    
Average Humidity 40    
Maximum Humidity 81    
Minimum Humidity 14    
Precipitation  
Precipitation 0.00 in - - ()
Sea Level Pressure  
Sea Level Pressure 30.17 in    
Wind  
Wind Speed 3 mph ()    
Max Wind Speed 13 mph    
Max Gust Speed -    
Visibility 6.1 miles    
Events      
Averages and records for this station are not official NWS values.
T = Trace of Precipitation, MM = Missing Value Source: Averaged Metar Reports

Daily Weather History Graph

Daily Weather History Graph

Search for Another Location

Airport or City:

Trip Planner

Search our weather history database for the weather conditions in past years. The results will help you decide how hot, cold, wet, or windy it might be!

Date:

Astronomy

Mar. 09, 2013 Rise Set
Actual Time 6:51 AM CST 6:46 PM CST
Civil Twilight 6:29 AM CST 7:08 PM CST
Nautical Twilight 6:03 AM CST 7:33 PM CST
Astronomical Twilight 5:38 AM CST 7:59 PM CST
Moon 5:02 AM CST (3/9) 5:00 PM CST (3/9)
Length of Visible Light 12h 38m
Length of Day
11h 55m
Waning Crescent, 5% of the Moon is Illuminated
Mar 9
Waning Crescent
Mar 11
New
Mar 19
First Quarter
Mar 27
Full
Apr 2
Last Quarter

Hourly Weather History & Observations

Time (CST) Temp. Windchill Dew Point Humidity Pressure Visibility Wind Dir Wind Speed Gust Speed Precip Events Conditions
12:45 AM 46.4 °F - 28.4 °F 50% 30.45 in 5.0 mi Calm Calm - N/A   Partly Cloudy
1:45 AM 44.6 °F - 28.4 °F 53% 30.45 in 5.0 mi Calm Calm - N/A   Scattered Clouds
2:45 AM 42.8 °F 41.1 °F 28.4 °F 57% 29.86 in 5.0 mi NE 3.5 mph - N/A   Scattered Clouds
3:45 AM 41.0 °F - 28.4 °F 61% 30.36 in 4.0 mi Calm Calm - N/A   Scattered Clouds
4:45 AM 37.4 °F - 32.0 °F 81% 30.34 in 4.0 mi Calm Calm - N/A   Scattered Clouds
5:45 AM 35.6 °F 29.2 °F 28.4 °F 75% 29.97 in 3.0 mi ENE 8.1 mph - N/A   Partly Cloudy
6:45 AM 37.4 °F - 28.4 °F 70% 30.37 in 5.0 mi Calm Calm - N/A   Clear
7:44 AM 41.0 °F - 32.0 °F 70% 30.38 in 5.0 mi Calm Calm - N/A   Clear
8:45 AM 50.0 °F - 32.0 °F 50% 29.94 in 5.0 mi South 3.5 mph - N/A   Clear
9:45 AM 59.0 °F - 30.2 °F 34% 30.39 in 7.0 mi Calm Calm - N/A   Clear
10:43 AM 64.4 °F - 30.2 °F 28% 30.39 in 7.0 mi South 8.1 mph - N/A   Clear
11:41 AM 68.0 °F - 30.2 °F 24% 29.81 in 7.0 mi WNW 8.1 mph - N/A   Clear
12:45 PM 71.6 °F - 28.4 °F 20% 30.33 in 7.0 mi SSW 6.9 mph - N/A   Partly Cloudy
1:45 PM 75.2 °F - 23.0 °F 14% 30.30 in 7.0 mi SSW 10.4 mph - N/A   Scattered Clouds
2:43 PM 73.4 °F - 23.0 °F 15% 29.71 in 7.0 mi SW 11.5 mph - N/A   Scattered Clouds
3:43 PM 73.4 °F - 21.2 °F 14% 30.25 in 7.0 mi NNW 8.1 mph - N/A   Scattered Clouds
4:47 PM 73.4 °F - 23.0 °F 15% 30.24 in 7.0 mi West 11.5 mph - N/A   Partly Cloudy
5:46 PM 71.6 °F - 26.6 °F 19% 29.75 in 8.0 mi WNW 12.7 mph - N/A   Clear
6:43 PM 64.4 °F - 28.4 °F 26% 30.27 in 7.0 mi West 6.9 mph - N/A   Clear
7:42 PM 60.8 °F - 28.4 °F 29% 30.30 in 7.0 mi West 4.6 mph - N/A   Clear
8:40 PM 59.0 °F - 26.6 °F 29% 29.81 in 7.0 mi Calm Calm - N/A   Clear
9:45 PM 53.6 °F - 26.6 °F 35% 30.32 in 7.0 mi NNE 4.6 mph - N/A   Clear
10:45 PM 51.8 °F - 26.6 °F 38% 30.33 in 7.0 mi Calm Calm - N/A   Clear
11:45 PM 48.2 °F - 26.6 °F 43% 29.78 in 7.0 mi NNE 5.8 mph - N/A   Clear